sat.trackr.live / text

‹ back to catalog

SATELIOT_2

NORAD 60534 · 2024-149BU

PAYLOAD ACTIVE UNKNOWN

§ Identity

Operator
Country
SPN
Launch date
2024-08-16
Launch site
AFWTR
Launch vehicle
Mass (kg)
RCS (m²)

External: N2YO · Heavens-Above · Gunter

§ Orbital elements

Epoch: 2026-09-22T17:08:03.971040Z

Period
96.22 min
Inclination
97.6754°
Eccentricity
0.0001820
Mean motion
14.96646846 rev/d
Perigee alt
576.0 km
Apogee alt
578.5 km
Semi-major
6,955.4 km
B*
5.4862e-5
RAAN
338.8681°
Arg perigee
94.8349°
Mean anomaly
265.3080°
Rev number
11,455

§ Raw data

SATELIOT_21 60534U 24149BU  26265.71393485  .00000569  00000+0  54862-4 0  99972 60534  97.6754 338.8681 0001820  94.8349 265.3080 14.96646846114557

JSON: /api/v1/satellites/60534 · /tle

For live sub-satellite position, see the globe view (requires WebGL).

§ Visibility from observer

Set your observer location to see the next 7 days of passes ≥ 10°. The values pass through the URL so the page stays shareable.

No JS? Fill the form by hand. The geolocation button needs JavaScript.